{"data":{"norad_id":57883,"epoch":"2026-05-25T04:52:21.811008Z","epoch_age_seconds":57179,"freshness":"FRESH","line1":"1 57883U 23144V   26145.20303022  .00003851  00000+0  14946-3 0  9998","line2":"2 57883  43.0018 212.7118 0001747 269.3618  90.7033 15.27567981149349","mean_motion":15.27567981,"eccentricity":0.0001747,"inclination_deg":43.0018,"raan_deg":212.7118,"arg_perigee_deg":269.3618,"mean_anomaly_deg":90.7033,"bstar":0.00014946,"rev_number":14934,"period_min":94.267490410301,"perigee_km":481.8864299871,"apogee_km":484.28374098377,"semimajor_km":6861.2220854854,"source":"CELESTRAK","updated_at":"2026-05-25T13:38:18.450434Z"}}